Terminal Aerodrome Forecast
Issued by NWS

Home | Current Version | Previous Version | Text Only | Print | Product List | Glossary On
Versions: 1 2 3 4 5 6 7 8 9 10 11 12 13 14
013
FTUS45 KRIW 290531
TAFJAC
TAF
KJAC 290531Z 2906/3006 01008KT P6SM VCSH BKN100
     FM291700 24011KT P6SM VCTS BKN070CB
     FM300100 35007KT P6SM VCSH SCT050 BKN100
     FM300400 36007KT P6SM SCT060 BKN120
      AMD LTD TO CLD VIS AND WIND=

USA.gov is the U.S. government's official web portal to all federal, state and local government web resources and services.